Year,Month,Day,Hour,Minute,Value (Times are PST for temperature in C)
2015,06,29,00,00,19.70
2015,06,29,00,01,19.70
2015,06,29,00,02,19.70
2015,06,29,00,03,19.70
2015,06,29,00,04,19.70
2015,06,29,00,05,19.70
2015,06,29,00,06,19.70
2015,06,29,00,07,19.70
2015,06,29,00,08,19.70
2015,06,29,00,09,19.70
2015,06,29,00,10,19.70
2015,06,29,00,11,19.70
2015,06,29,00,12,19.70
2015,06,29,00,13,19.70
2015,06,29,00,14,19.70
2015,06,29,00,15,19.70
2015,06,29,00,16,19.70
2015,06,29,00,17,19.70
2015,06,29,00,18,19.70
2015,06,29,00,19,19.80
2015,06,29,00,20,19.80
2015,06,29,00,21,19.80
2015,06,29,00,22,19.80
2015,06,29,00,23,19.80
2015,06,29,00,24,19.70
2015,06,29,00,25,19.80
2015,06,29,00,26,19.80
2015,06,29,00,27,19.70
2015,06,29,00,28,19.70
2015,06,29,00,29,19.70
2015,06,29,00,30,19.70
2015,06,29,00,31,19.70
2015,06,29,00,32,19.70
2015,06,29,00,33,19.70
2015,06,29,00,34,19.70
2015,06,29,00,35,19.70
2015,06,29,00,36,19.70
2015,06,29,00,37,19.70
2015,06,29,00,38,19.70
2015,06,29,00,39,19.70
2015,06,29,00,40,19.70
2015,06,29,00,41,19.70
2015,06,29,00,42,19.60
2015,06,29,00,43,19.60
2015,06,29,00,44,19.60
2015,06,29,00,45,19.60
2015,06,29,00,46,19.60
2015,06,29,00,47,19.60
2015,06,29,00,48,19.50
2015,06,29,00,49,19.50
2015,06,29,00,50,19.50
2015,06,29,00,51,19.40
2015,06,29,00,52,19.40
2015,06,29,00,53,19.40
2015,06,29,00,54,19.40
2015,06,29,00,55,19.40
2015,06,29,00,56,19.40
2015,06,29,00,57,19.40
2015,06,29,00,58,19.40
2015,06,29,00,59,19.40
2015,06,29,01,00,19.40
2015,06,29,01,01,19.40
2015,06,29,01,02,19.40
2015,06,29,01,03,19.40
2015,06,29,01,04,19.40
2015,06,29,01,05,19.40
2015,06,29,01,06,19.40
2015,06,29,01,07,19.40
2015,06,29,01,08,19.40
2015,06,29,01,09,19.30
2015,06,29,01,10,19.30
2015,06,29,01,11,19.20
2015,06,29,01,12,19.20
2015,06,29,01,13,19.10
2015,06,29,01,14,19.10
2015,06,29,01,15,19.00
2015,06,29,01,16,19.00
2015,06,29,01,17,18.90
2015,06,29,01,18,18.90
2015,06,29,01,19,18.90
2015,06,29,01,20,18.90
2015,06,29,01,21,18.90
2015,06,29,01,22,18.90
2015,06,29,01,23,18.90
2015,06,29,01,24,18.80
2015,06,29,01,25,18.80
2015,06,29,01,26,18.80
2015,06,29,01,27,18.80
2015,06,29,01,28,18.80
2015,06,29,01,29,18.80
2015,06,29,01,30,18.80
2015,06,29,01,31,18.80
2015,06,29,01,32,18.80
2015,06,29,01,33,18.80
2015,06,29,01,34,18.80
2015,06,29,01,35,18.80
2015,06,29,01,36,18.80
2015,06,29,01,37,18.80
2015,06,29,01,38,18.70
2015,06,29,01,39,18.70
2015,06,29,01,40,18.70
2015,06,29,01,41,18.70
2015,06,29,01,42,18.60
2015,06,29,01,43,18.60
2015,06,29,01,44,18.60
2015,06,29,01,45,18.60
2015,06,29,01,46,18.60
2015,06,29,01,47,18.50
2015,06,29,01,48,18.50
2015,06,29,01,49,18.50
2015,06,29,01,50,18.50
2015,06,29,01,51,18.50
2015,06,29,01,52,18.50
2015,06,29,01,53,18.40
2015,06,29,01,54,18.40
2015,06,29,01,55,18.40
2015,06,29,01,56,18.40
2015,06,29,01,57,18.40
2015,06,29,01,58,18.40
2015,06,29,01,59,18.40
2015,06,29,02,00,18.40
2015,06,29,02,01,18.40
2015,06,29,02,02,18.40
2015,06,29,02,03,18.40
2015,06,29,02,04,18.40
2015,06,29,02,05,18.40
2015,06,29,02,06,18.30
2015,06,29,02,07,18.30
2015,06,29,02,08,18.30
2015,06,29,02,09,18.30
2015,06,29,02,10,18.30
2015,06,29,02,11,18.30
2015,06,29,02,12,18.30
2015,06,29,02,13,18.30
2015,06,29,02,14,18.30
2015,06,29,02,15,18.30
2015,06,29,02,16,18.30
2015,06,29,02,17,18.30
2015,06,29,02,18,18.30
2015,06,29,02,19,18.30
2015,06,29,02,20,18.30
2015,06,29,02,21,18.30
2015,06,29,02,22,18.30
2015,06,29,02,23,18.30
2015,06,29,02,24,18.30
2015,06,29,02,25,18.30
2015,06,29,02,26,18.30
2015,06,29,02,27,18.30
2015,06,29,02,28,18.30
2015,06,29,02,29,18.30
2015,06,29,02,30,18.30
2015,06,29,02,31,18.30
2015,06,29,02,32,18.30
2015,06,29,02,33,18.30
2015,06,29,02,34,18.30
2015,06,29,02,35,18.30
2015,06,29,02,36,18.30
2015,06,29,02,37,18.30
2015,06,29,02,38,18.30
2015,06,29,02,39,18.30
2015,06,29,02,40,18.30
2015,06,29,02,41,18.30
2015,06,29,02,42,18.30
2015,06,29,02,43,18.30
2015,06,29,02,44,18.30
2015,06,29,02,45,18.20
2015,06,29,02,46,18.20
2015,06,29,02,47,18.20
2015,06,29,02,48,18.20
2015,06,29,02,49,18.20
2015,06,29,02,50,18.20
2015,06,29,02,51,18.20
2015,06,29,02,52,18.20
2015,06,29,02,53,18.20
2015,06,29,02,54,18.10
2015,06,29,02,55,18.10
2015,06,29,02,56,18.10
2015,06,29,02,57,18.00
2015,06,29,02,58,18.00
2015,06,29,02,59,17.90
2015,06,29,03,00,17.90
2015,06,29,03,01,17.90
2015,06,29,03,02,17.90
2015,06,29,03,03,17.90
2015,06,29,03,04,17.90
2015,06,29,03,05,17.90
2015,06,29,03,06,17.80
2015,06,29,03,07,17.80
2015,06,29,03,08,17.80
2015,06,29,03,09,17.80
2015,06,29,03,10,17.80
2015,06,29,03,11,17.80
2015,06,29,03,12,17.80
2015,06,29,03,13,17.80
2015,06,29,03,14,17.80
2015,06,29,03,15,17.80
2015,06,29,03,16,17.80
2015,06,29,03,17,17.80
2015,06,29,03,18,17.80
2015,06,29,03,19,17.80
2015,06,29,03,20,17.80
2015,06,29,03,21,17.80
2015,06,29,03,22,17.80
2015,06,29,03,23,17.80
2015,06,29,03,24,17.80
2015,06,29,03,25,17.80
2015,06,29,03,26,17.80
2015,06,29,03,27,17.80
2015,06,29,03,28,17.80
2015,06,29,03,29,17.80
2015,06,29,03,30,17.90
2015,06,29,03,31,17.90
2015,06,29,03,32,17.90
2015,06,29,03,33,17.90
2015,06,29,03,34,17.90
2015,06,29,03,35,17.90
2015,06,29,03,36,17.90
2015,06,29,03,37,17.90
2015,06,29,03,38,17.90
2015,06,29,03,39,17.90
2015,06,29,03,40,17.90
2015,06,29,03,41,17.90
2015,06,29,03,42,17.90
2015,06,29,03,43,17.90
2015,06,29,03,44,17.90
2015,06,29,03,45,17.90
2015,06,29,03,46,17.90
2015,06,29,03,47,17.90
2015,06,29,03,48,17.90
2015,06,29,03,49,17.90
2015,06,29,03,50,17.90
2015,06,29,03,51,17.80
2015,06,29,03,52,17.80
2015,06,29,03,53,17.70
2015,06,29,03,54,17.70
2015,06,29,03,55,17.70
2015,06,29,03,56,17.60
2015,06,29,03,57,17.60
2015,06,29,03,58,17.60
2015,06,29,03,59,17.60
2015,06,29,04,00,17.60
2015,06,29,04,01,17.60
2015,06,29,04,02,17.60
2015,06,29,04,03,17.60
2015,06,29,04,04,17.60
2015,06,29,04,05,17.60
2015,06,29,04,06,17.60
2015,06,29,04,07,17.60
2015,06,29,04,08,17.60
2015,06,29,04,09,17.60
2015,06,29,04,10,17.60
2015,06,29,04,11,17.60
2015,06,29,04,12,17.70
2015,06,29,04,13,17.70
2015,06,29,04,14,17.70
2015,06,29,04,15,17.70
2015,06,29,04,16,17.70
2015,06,29,04,17,17.70
2015,06,29,04,18,17.80
2015,06,29,04,19,17.70
2015,06,29,04,20,17.70
2015,06,29,04,21,17.70
2015,06,29,04,22,17.70
2015,06,29,04,23,17.70
2015,06,29,04,24,17.70
2015,06,29,04,25,17.70
2015,06,29,04,26,17.70
2015,06,29,04,27,17.70
2015,06,29,04,28,17.70
2015,06,29,04,29,17.70
2015,06,29,04,30,17.70
2015,06,29,04,31,17.60
2015,06,29,04,32,17.60
2015,06,29,04,33,17.60
2015,06,29,04,34,17.50
2015,06,29,04,35,17.50
2015,06,29,04,36,17.40
2015,06,29,04,37,17.40
2015,06,29,04,38,17.40
2015,06,29,04,39,17.40
2015,06,29,04,40,17.30
2015,06,29,04,41,17.30
2015,06,29,04,42,17.30
2015,06,29,04,43,17.20
2015,06,29,04,44,17.20
2015,06,29,04,45,17.20
2015,06,29,04,46,17.20
2015,06,29,04,47,17.20
2015,06,29,04,48,17.20
2015,06,29,04,49,17.20
2015,06,29,04,50,17.20
2015,06,29,04,51,17.20
2015,06,29,04,52,17.20
2015,06,29,04,53,17.20
2015,06,29,04,54,17.20
2015,06,29,04,55,17.20
2015,06,29,04,56,17.20
2015,06,29,04,57,17.20
2015,06,29,04,58,17.30
2015,06,29,04,59,17.30
2015,06,29,05,00,17.30
2015,06,29,05,01,17.30
2015,06,29,05,02,17.30
2015,06,29,05,03,17.40
2015,06,29,05,04,17.40
2015,06,29,05,05,17.40
2015,06,29,05,06,17.40
2015,06,29,05,07,17.40
2015,06,29,05,08,17.40
2015,06,29,05,09,17.40
2015,06,29,05,10,17.40
2015,06,29,05,11,17.40
2015,06,29,05,12,17.40
2015,06,29,05,13,17.40
2015,06,29,05,14,17.40
2015,06,29,05,15,17.30
2015,06,29,05,16,17.30
2015,06,29,05,17,17.30
2015,06,29,05,18,17.30
2015,06,29,05,19,17.20
2015,06,29,05,20,17.20
2015,06,29,05,21,17.20
2015,06,29,05,22,17.20
2015,06,29,05,23,17.20
2015,06,29,05,24,17.20
2015,06,29,05,25,17.20
2015,06,29,05,26,17.20
2015,06,29,05,27,17.20
2015,06,29,05,28,17.30
2015,06,29,05,29,17.30
2015,06,29,05,30,17.30
2015,06,29,05,31,17.30
2015,06,29,05,32,17.40
2015,06,29,05,33,17.40
2015,06,29,05,34,17.40
2015,06,29,05,35,17.40
2015,06,29,05,36,17.40
2015,06,29,05,37,17.40
2015,06,29,05,38,17.40
2015,06,29,05,39,17.40
2015,06,29,05,40,17.40
2015,06,29,05,41,17.40
2015,06,29,05,42,17.40
2015,06,29,05,43,17.40
2015,06,29,05,44,17.40
2015,06,29,05,45,17.40
2015,06,29,05,46,17.40
2015,06,29,05,47,17.30
2015,06,29,05,48,17.30
2015,06,29,05,49,17.30
2015,06,29,05,50,17.30
2015,06,29,05,51,17.30
2015,06,29,05,52,17.30
2015,06,29,05,53,17.30
2015,06,29,05,54,17.30
2015,06,29,05,55,17.30
2015,06,29,05,56,17.30
2015,06,29,05,57,17.30
2015,06,29,05,58,17.30
2015,06,29,05,59,17.30
2015,06,29,06,00,17.30
2015,06,29,06,01,17.30
2015,06,29,06,02,17.30
2015,06,29,06,03,17.30
2015,06,29,06,04,17.30
2015,06,29,06,05,17.40
2015,06,29,06,06,17.40
2015,06,29,06,07,17.40
2015,06,29,06,08,17.40
2015,06,29,06,09,17.40
2015,06,29,06,10,17.40
2015,06,29,06,11,17.50
2015,06,29,06,12,17.50
2015,06,29,06,13,17.60
2015,06,29,06,14,17.60
2015,06,29,06,15,17.60
2015,06,29,06,16,17.60
2015,06,29,06,17,17.70
2015,06,29,06,18,17.70
2015,06,29,06,19,17.70
2015,06,29,06,20,17.70
2015,06,29,06,21,17.70
2015,06,29,06,22,17.80
2015,06,29,06,23,17.80
2015,06,29,06,24,17.80
2015,06,29,06,25,17.80
2015,06,29,06,26,17.80
2015,06,29,06,27,17.80
2015,06,29,06,28,17.90
2015,06,29,06,29,17.90
2015,06,29,06,30,17.90
2015,06,29,06,31,17.90
2015,06,29,06,32,17.90
2015,06,29,06,33,17.80
2015,06,29,06,34,17.80
2015,06,29,06,35,17.80
2015,06,29,06,36,17.70
2015,06,29,06,37,17.70
2015,06,29,06,38,17.70
2015,06,29,06,39,17.70
2015,06,29,06,40,17.70
2015,06,29,06,41,17.70
2015,06,29,06,42,17.70
2015,06,29,06,43,17.80
2015,06,29,06,44,17.80
2015,06,29,06,45,17.90
2015,06,29,06,46,18.00
2015,06,29,06,47,18.00
2015,06,29,06,48,18.10
2015,06,29,06,49,18.20
2015,06,29,06,50,18.30
2015,06,29,06,51,18.30
2015,06,29,06,52,18.30
2015,06,29,06,53,18.40
2015,06,29,06,54,18.50
2015,06,29,06,55,18.50
2015,06,29,06,56,18.60
2015,06,29,06,57,18.60
2015,06,29,06,58,18.70
2015,06,29,06,59,18.70
2015,06,29,07,00,18.70
2015,06,29,07,01,18.70
2015,06,29,07,02,18.80
2015,06,29,07,03,18.80
2015,06,29,07,04,18.80
2015,06,29,07,05,18.80
2015,06,29,07,06,18.80
2015,06,29,07,07,18.90
2015,06,29,07,08,18.90
2015,06,29,07,09,18.90
2015,06,29,07,10,19.00
2015,06,29,07,11,19.00
2015,06,29,07,12,19.10
2015,06,29,07,13,19.10
2015,06,29,07,14,19.20
2015,06,29,07,15,19.20
2015,06,29,07,16,19.30
2015,06,29,07,17,19.30
2015,06,29,07,18,19.40
2015,06,29,07,19,19.40
2015,06,29,07,20,19.50
2015,06,29,07,21,19.50
2015,06,29,07,22,19.60
2015,06,29,07,23,19.60
2015,06,29,07,24,19.70
2015,06,29,07,25,19.70
2015,06,29,07,26,19.80
2015,06,29,07,27,19.80
2015,06,29,07,28,19.90
2015,06,29,07,29,19.90
2015,06,29,07,30,19.90
2015,06,29,07,31,19.90
2015,06,29,07,32,19.90
2015,06,29,07,33,20.00
2015,06,29,07,34,20.00
2015,06,29,07,35,20.00
2015,06,29,07,36,20.00
2015,06,29,07,37,20.00
2015,06,29,07,38,20.00
2015,06,29,07,39,20.00
2015,06,29,07,40,20.00
2015,06,29,07,41,20.00
2015,06,29,07,42,20.00
2015,06,29,07,43,20.00
2015,06,29,07,44,20.10
2015,06,29,07,45,20.10
2015,06,29,07,46,20.10
2015,06,29,07,47,20.10
2015,06,29,07,48,20.10
2015,06,29,07,49,20.20
2015,06,29,07,50,20.20
2015,06,29,07,51,20.20
2015,06,29,07,52,20.20
2015,06,29,07,53,20.20
2015,06,29,07,54,20.30
2015,06,29,07,55,20.30
2015,06,29,07,56,20.30
2015,06,29,07,57,20.30
2015,06,29,07,58,20.30
2015,06,29,07,59,20.30
2015,06,29,08,00,20.40
2015,06,29,08,01,20.40
2015,06,29,08,02,20.50
2015,06,29,08,03,20.60
2015,06,29,08,04,20.60
2015,06,29,08,05,20.70
2015,06,29,08,06,20.80
2015,06,29,08,07,20.90
2015,06,29,08,08,20.90
2015,06,29,08,09,21.00
2015,06,29,08,10,21.10
2015,06,29,08,11,21.10
2015,06,29,08,12,21.20
2015,06,29,08,13,21.30
2015,06,29,08,14,21.30
2015,06,29,08,15,21.40
2015,06,29,08,16,21.60
2015,06,29,08,17,21.70
2015,06,29,08,18,21.80
2015,06,29,08,19,21.90
2015,06,29,08,20,22.10
2015,06,29,08,21,22.20
2015,06,29,08,22,22.30
2015,06,29,08,23,22.40
2015,06,29,08,24,22.40
2015,06,29,08,25,22.50
2015,06,29,08,26,22.50
2015,06,29,08,27,22.50
2015,06,29,08,28,22.50
2015,06,29,08,29,22.40
2015,06,29,08,30,22.50
2015,06,29,08,31,22.50
2015,06,29,08,32,22.50
2015,06,29,08,33,22.60
2015,06,29,08,34,22.60
2015,06,29,08,35,22.70
2015,06,29,08,36,22.80
2015,06,29,08,37,22.80
2015,06,29,08,38,22.90
2015,06,29,08,39,23.00
2015,06,29,08,40,23.10
2015,06,29,08,41,23.20
2015,06,29,08,42,23.30
2015,06,29,08,43,23.30
2015,06,29,08,44,23.40
2015,06,29,08,45,23.50
2015,06,29,08,46,23.60
2015,06,29,08,47,23.70
2015,06,29,08,48,23.70
2015,06,29,08,49,23.80
2015,06,29,08,50,23.80
2015,06,29,08,51,23.90
2015,06,29,08,52,24.00
2015,06,29,08,53,24.10
2015,06,29,08,54,24.10
2015,06,29,08,55,24.20
2015,06,29,08,56,24.30
2015,06,29,08,57,24.30
2015,06,29,08,58,24.30
2015,06,29,08,59,24.30
2015,06,29,09,00,24.30
2015,06,29,09,01,24.20
2015,06,29,09,02,24.30
2015,06,29,09,03,24.30
2015,06,29,09,04,24.30
2015,06,29,09,05,24.30
2015,06,29,09,06,24.30
2015,06,29,09,07,24.30
2015,06,29,09,08,24.40
2015,06,29,09,09,24.40
2015,06,29,09,10,24.40
2015,06,29,09,11,24.50
2015,06,29,09,12,24.60
2015,06,29,09,13,24.60
2015,06,29,09,14,24.60
2015,06,29,09,15,24.60
2015,06,29,09,16,24.60
2015,06,29,09,17,24.70
2015,06,29,09,18,24.70
2015,06,29,09,19,24.70
2015,06,29,09,20,24.70
2015,06,29,09,21,24.70
2015,06,29,09,22,24.60
2015,06,29,09,23,24.50
2015,06,29,09,24,24.50
2015,06,29,09,25,24.40
2015,06,29,09,26,24.40
2015,06,29,09,27,24.40
2015,06,29,09,28,24.30
2015,06,29,09,29,24.30
2015,06,29,09,30,24.20
2015,06,29,09,31,24.10
2015,06,29,09,32,24.00
2015,06,29,09,33,23.90
2015,06,29,09,34,23.90
2015,06,29,09,35,23.90
2015,06,29,09,36,23.90
2015,06,29,09,37,23.90
2015,06,29,09,38,23.90
2015,06,29,09,39,24.00
2015,06,29,09,40,24.00
2015,06,29,09,41,24.00
2015,06,29,09,42,24.00
2015,06,29,09,43,24.10
2015,06,29,09,44,24.10
2015,06,29,09,45,24.10
2015,06,29,09,46,24.10
2015,06,29,09,47,24.10
2015,06,29,09,48,24.20
2015,06,29,09,49,24.20
2015,06,29,09,50,24.20
2015,06,29,09,51,24.20
2015,06,29,09,52,24.20
2015,06,29,09,53,24.30
2015,06,29,09,54,24.30
2015,06,29,09,55,24.30
2015,06,29,09,56,24.30
2015,06,29,09,57,24.30
2015,06,29,09,58,24.30
2015,06,29,09,59,24.30
2015,06,29,10,00,24.30
2015,06,29,10,01,24.30
2015,06,29,10,02,24.40
2015,06,29,10,03,24.40
2015,06,29,10,04,24.50
2015,06,29,10,05,24.60
2015,06,29,10,06,24.70
2015,06,29,10,07,24.80
2015,06,29,10,08,24.90
2015,06,29,10,09,25.00
2015,06,29,10,10,25.10
2015,06,29,10,11,25.20
2015,06,29,10,12,25.20
2015,06,29,10,13,25.20
2015,06,29,10,14,25.20
2015,06,29,10,15,25.20
2015,06,29,10,16,25.30
2015,06,29,10,17,25.30
2015,06,29,10,18,25.30
2015,06,29,10,19,25.40
2015,06,29,10,20,25.40
2015,06,29,10,21,25.50
2015,06,29,10,22,25.60
2015,06,29,10,23,25.70
2015,06,29,10,24,25.80
2015,06,29,10,25,25.90
2015,06,29,10,26,26.00
2015,06,29,10,27,26.00
2015,06,29,10,28,26.10
2015,06,29,10,29,26.10
2015,06,29,10,30,26.10
2015,06,29,10,31,26.20
2015,06,29,10,32,26.20
2015,06,29,10,33,26.20
2015,06,29,10,34,26.30
2015,06,29,10,35,26.40
2015,06,29,10,36,26.40
2015,06,29,10,37,26.40
2015,06,29,10,38,26.40
2015,06,29,10,39,26.40
2015,06,29,10,40,26.40
2015,06,29,10,41,26.50
2015,06,29,10,42,26.60
2015,06,29,10,43,26.70
2015,06,29,10,44,26.80
2015,06,29,10,45,26.90
2015,06,29,10,46,26.90
2015,06,29,10,47,27.00
2015,06,29,10,48,27.00
2015,06,29,10,49,27.10
2015,06,29,10,50,27.10
2015,06,29,10,51,27.20
2015,06,29,10,52,27.20
2015,06,29,10,53,27.20
2015,06,29,10,54,27.20
2015,06,29,10,55,27.20
2015,06,29,10,56,27.20
2015,06,29,10,57,27.20
2015,06,29,10,58,27.20
2015,06,29,10,59,27.20
2015,06,29,11,00,27.20
2015,06,29,11,01,27.10
2015,06,29,11,02,27.00
2015,06,29,11,03,27.00
2015,06,29,11,04,27.00
2015,06,29,11,05,27.10
2015,06,29,11,06,27.10
2015,06,29,11,07,27.20
2015,06,29,11,08,27.20
2015,06,29,11,09,27.30
2015,06,29,11,10,27.30
2015,06,29,11,11,27.40
2015,06,29,11,12,27.40
2015,06,29,11,13,27.50
2015,06,29,11,14,27.60
2015,06,29,11,15,27.60
2015,06,29,11,16,27.80
2015,06,29,11,17,27.80
2015,06,29,11,18,27.90
2015,06,29,11,19,28.00
2015,06,29,11,20,28.00
2015,06,29,11,21,28.10
2015,06,29,11,22,28.10
2015,06,29,11,23,28.20
2015,06,29,11,24,28.30
2015,06,29,11,25,28.30
2015,06,29,11,26,28.30
2015,06,29,11,27,28.40
2015,06,29,11,28,28.40
2015,06,29,11,29,28.40
2015,06,29,11,30,28.30
2015,06,29,11,31,28.30
2015,06,29,11,32,28.30
2015,06,29,11,33,28.40
2015,06,29,11,34,28.40
2015,06,29,11,35,28.40
2015,06,29,11,36,28.40
2015,06,29,11,37,28.40
2015,06,29,11,38,28.40
2015,06,29,11,39,28.40
2015,06,29,11,40,28.40
2015,06,29,11,41,28.40
2015,06,29,11,42,28.30
2015,06,29,11,43,28.20
2015,06,29,11,44,28.10
2015,06,29,11,45,28.00
2015,06,29,11,46,28.00
2015,06,29,11,47,27.90
2015,06,29,11,48,28.00
2015,06,29,11,49,27.90
2015,06,29,11,50,27.90
2015,06,29,11,51,27.80
2015,06,29,11,52,27.80
2015,06,29,11,53,27.70
2015,06,29,11,54,27.70
2015,06,29,11,55,27.70
2015,06,29,11,56,27.60
2015,06,29,11,57,27.60
2015,06,29,11,58,27.60
2015,06,29,11,59,27.60
2015,06,29,12,00,27.60
2015,06,29,12,01,27.50
2015,06,29,12,02,27.40
2015,06,29,12,03,27.40
2015,06,29,12,04,27.30
2015,06,29,12,05,27.30
2015,06,29,12,06,27.30
2015,06,29,12,07,27.30
2015,06,29,12,08,27.30
2015,06,29,12,09,27.40
2015,06,29,12,10,27.50
2015,06,29,12,11,27.60
2015,06,29,12,12,27.70
2015,06,29,12,13,27.80
2015,06,29,12,14,27.80
2015,06,29,12,15,27.80
2015,06,29,12,16,27.70
2015,06,29,12,17,27.70
2015,06,29,12,18,27.70
2015,06,29,12,19,27.70
2015,06,29,12,20,27.80
2015,06,29,12,21,27.80
2015,06,29,12,22,27.70
2015,06,29,12,23,27.60
2015,06,29,12,24,27.60
2015,06,29,12,25,27.60
2015,06,29,12,26,27.60
2015,06,29,12,27,27.60
2015,06,29,12,28,27.70
2015,06,29,12,29,27.60
2015,06,29,12,30,27.70
2015,06,29,12,31,27.70
2015,06,29,12,32,27.80
2015,06,29,12,33,27.80
2015,06,29,12,34,27.80
2015,06,29,12,35,27.80
2015,06,29,12,36,27.80
2015,06,29,12,37,27.80
2015,06,29,12,38,27.80
2015,06,29,12,39,27.90
2015,06,29,12,40,28.00
2015,06,29,12,41,28.00
2015,06,29,12,42,28.00
2015,06,29,12,43,27.90
2015,06,29,12,44,28.00
2015,06,29,12,45,28.00
2015,06,29,12,46,28.00
2015,06,29,12,47,28.00
2015,06,29,12,48,27.90
2015,06,29,12,49,27.80
2015,06,29,12,50,27.80
2015,06,29,12,51,27.90
2015,06,29,12,52,27.90
2015,06,29,12,53,28.00
2015,06,29,12,54,28.00
2015,06,29,12,55,27.90
2015,06,29,12,56,27.90
2015,06,29,12,57,27.90
2015,06,29,12,58,27.80
2015,06,29,12,59,27.80
2015,06,29,13,00,27.70
2015,06,29,13,01,27.70
2015,06,29,13,02,27.70
2015,06,29,13,03,27.80
2015,06,29,13,04,27.80
2015,06,29,13,05,27.90
2015,06,29,13,06,27.90
2015,06,29,13,07,27.90
2015,06,29,13,08,27.90
2015,06,29,13,09,27.90
2015,06,29,13,10,28.00
2015,06,29,13,11,28.10
2015,06,29,13,12,28.20
2015,06,29,13,13,28.20
2015,06,29,13,14,28.20
2015,06,29,13,15,28.30
2015,06,29,13,16,28.30
2015,06,29,13,17,28.40
2015,06,29,13,18,28.50
2015,06,29,13,19,28.60
2015,06,29,13,20,28.60
2015,06,29,13,21,28.70
2015,06,29,13,22,28.70
2015,06,29,13,23,28.70
2015,06,29,13,24,28.70
2015,06,29,13,25,28.80
2015,06,29,13,26,28.90
2015,06,29,13,27,29.00
2015,06,29,13,28,29.10
2015,06,29,13,29,29.10
2015,06,29,13,30,29.10
2015,06,29,13,31,29.20
2015,06,29,13,32,29.30
2015,06,29,13,33,29.30
2015,06,29,13,34,29.30
2015,06,29,13,35,29.30
2015,06,29,13,36,29.30
2015,06,29,13,37,29.20
2015,06,29,13,38,29.20
2015,06,29,13,39,29.30
2015,06,29,13,40,29.40
2015,06,29,13,41,29.50
2015,06,29,13,42,29.50
2015,06,29,13,43,29.60
2015,06,29,13,44,29.60
2015,06,29,13,45,29.60
2015,06,29,13,46,29.70
2015,06,29,13,47,29.70
2015,06,29,13,48,29.80
2015,06,29,13,49,29.90
2015,06,29,13,50,29.90
2015,06,29,13,51,30.00
2015,06,29,13,52,30.00
2015,06,29,13,53,30.00
2015,06,29,13,54,30.00
2015,06,29,13,55,29.90
2015,06,29,13,56,29.90
2015,06,29,13,57,29.90
2015,06,29,13,58,29.90
2015,06,29,13,59,29.90
2015,06,29,14,00,29.90
2015,06,29,14,01,30.00
2015,06,29,14,02,30.10
2015,06,29,14,03,30.10
2015,06,29,14,04,30.00
2015,06,29,14,05,29.90
2015,06,29,14,06,29.90
2015,06,29,14,07,29.80
2015,06,29,14,08,29.90
2015,06,29,14,09,29.90
2015,06,29,14,10,29.90
2015,06,29,14,11,29.90
2015,06,29,14,12,29.90
2015,06,29,14,13,29.80
2015,06,29,14,14,29.80
2015,06,29,14,15,29.90
2015,06,29,14,16,29.90
2015,06,29,14,17,30.00
2015,06,29,14,18,30.10
2015,06,29,14,19,30.20
2015,06,29,14,20,30.30
2015,06,29,14,21,30.30
2015,06,29,14,22,30.30
2015,06,29,14,23,30.30
2015,06,29,14,24,30.30
2015,06,29,14,25,30.30
2015,06,29,14,26,30.20
2015,06,29,14,27,30.30
2015,06,29,14,28,30.50
2015,06,29,14,29,30.70
2015,06,29,14,30,30.80
2015,06,29,14,31,30.80
2015,06,29,14,32,30.90
2015,06,29,14,33,30.90
2015,06,29,14,34,30.90
2015,06,29,14,35,31.10
2015,06,29,14,36,31.20
2015,06,29,14,37,31.30
2015,06,29,14,38,31.30
2015,06,29,14,39,31.30
2015,06,29,14,40,31.30
2015,06,29,14,41,31.30
2015,06,29,14,42,31.30
2015,06,29,14,43,31.30
2015,06,29,14,44,31.30
2015,06,29,14,45,31.40
2015,06,29,14,46,31.40
2015,06,29,14,47,31.50
2015,06,29,14,48,31.60
2015,06,29,14,49,31.60
2015,06,29,14,50,31.60
2015,06,29,14,51,31.60
2015,06,29,14,52,31.60
2015,06,29,14,53,31.60
2015,06,29,14,54,31.70
2015,06,29,14,55,31.80
2015,06,29,14,56,31.90
2015,06,29,14,57,31.90
2015,06,29,14,58,32.00
2015,06,29,14,59,32.00
2015,06,29,15,00,31.90
2015,06,29,15,01,32.00
2015,06,29,15,02,32.00
2015,06,29,15,03,32.00
2015,06,29,15,04,32.00
2015,06,29,15,05,32.10
2015,06,29,15,06,32.20
2015,06,29,15,07,32.30
2015,06,29,15,08,32.40
2015,06,29,15,09,32.50
2015,06,29,15,10,32.40
2015,06,29,15,11,32.10
2015,06,29,15,12,31.90
2015,06,29,15,13,31.90
2015,06,29,15,14,31.90
2015,06,29,15,15,31.90
2015,06,29,15,16,31.90
2015,06,29,15,17,32.00
2015,06,29,15,18,32.00
2015,06,29,15,19,32.00
2015,06,29,15,20,31.90
2015,06,29,15,21,31.80
2015,06,29,15,22,31.80
2015,06,29,15,23,31.60
2015,06,29,15,24,31.50
2015,06,29,15,25,31.40
2015,06,29,15,26,31.40
2015,06,29,15,27,31.30
2015,06,29,15,28,31.30
2015,06,29,15,29,31.30
2015,06,29,15,30,31.30
2015,06,29,15,31,31.30
2015,06,29,15,32,31.30
2015,06,29,15,33,31.30
2015,06,29,15,34,31.30
2015,06,29,15,35,31.40
2015,06,29,15,36,31.40
2015,06,29,15,37,31.50
2015,06,29,15,38,31.60
2015,06,29,15,39,31.70
2015,06,29,15,40,31.70
2015,06,29,15,41,31.70
2015,06,29,15,42,31.90
2015,06,29,15,43,32.10
2015,06,29,15,44,32.20
2015,06,29,15,45,32.30
2015,06,29,15,46,32.30
2015,06,29,15,47,32.30
2015,06,29,15,48,32.20
2015,06,29,15,49,32.00
2015,06,29,15,50,31.80
2015,06,29,15,51,31.40
2015,06,29,15,52,31.20
2015,06,29,15,53,30.90
2015,06,29,15,54,30.60
2015,06,29,15,55,30.30
2015,06,29,15,56,30.00
2015,06,29,15,57,29.70
2015,06,29,15,58,29.40
2015,06,29,15,59,29.10
2015,06,29,16,00,28.80
2015,06,29,16,01,28.70
2015,06,29,16,02,28.70
2015,06,29,16,03,28.70
2015,06,29,16,04,28.80
2015,06,29,16,05,28.80
2015,06,29,16,06,28.80
2015,06,29,16,07,28.80
2015,06,29,16,08,28.70
2015,06,29,16,09,28.70
2015,06,29,16,10,28.70
2015,06,29,16,11,28.80
2015,06,29,16,12,28.70
2015,06,29,16,13,28.60
2015,06,29,16,14,28.60
2015,06,29,16,15,28.60
2015,06,29,16,16,28.60
2015,06,29,16,17,28.70
2015,06,29,16,18,28.80
2015,06,29,16,19,28.80
2015,06,29,16,20,28.90
2015,06,29,16,21,29.00
2015,06,29,16,22,29.10
2015,06,29,16,23,29.20
2015,06,29,16,24,29.20
2015,06,29,16,25,29.30
2015,06,29,16,26,29.30
2015,06,29,16,27,29.50
2015,06,29,16,28,29.60
2015,06,29,16,29,29.80
2015,06,29,16,30,30.10
2015,06,29,16,31,30.40
2015,06,29,16,32,30.70
2015,06,29,16,33,30.90
2015,06,29,16,34,31.00
2015,06,29,16,35,31.00
2015,06,29,16,36,30.90
2015,06,29,16,37,30.80
2015,06,29,16,38,30.80
2015,06,29,16,39,30.70
2015,06,29,16,40,30.70
2015,06,29,16,41,30.90
2015,06,29,16,42,31.00
2015,06,29,16,43,31.20
2015,06,29,16,44,31.30
2015,06,29,16,45,31.40
2015,06,29,16,46,31.40
2015,06,29,16,47,31.40
2015,06,29,16,48,31.40
2015,06,29,16,49,31.50
2015,06,29,16,50,31.50
2015,06,29,16,51,31.60
2015,06,29,16,52,31.60
2015,06,29,16,53,31.60
2015,06,29,16,54,31.70
2015,06,29,16,55,31.70
2015,06,29,16,56,31.70
2015,06,29,16,57,31.70
2015,06,29,16,58,31.70
2015,06,29,16,59,31.70
2015,06,29,17,00,31.60
2015,06,29,17,01,31.40
2015,06,29,17,02,31.40
2015,06,29,17,03,31.40
2015,06,29,17,04,31.30
2015,06,29,17,05,31.30
2015,06,29,17,06,31.10
2015,06,29,17,07,31.00
2015,06,29,17,08,30.90
2015,06,29,17,09,31.00
2015,06,29,17,10,31.10
2015,06,29,17,11,31.10
2015,06,29,17,12,31.10
2015,06,29,17,13,31.20
2015,06,29,17,14,31.10
2015,06,29,17,15,31.10
2015,06,29,17,16,31.20
2015,06,29,17,17,31.20
2015,06,29,17,18,31.20
2015,06,29,17,19,31.20